FW7612 Weather Reports


time (UTC)temp
C
wind
direction
speed
KPH
gust
KPH
rain 1hr
cm
rain 24hr
cm
rain mn
cm
humidity
%
barometer
mb
20260507192604 13 54 9.7 11.3 0.00 0.00 0.00 72 1005.4
20260507192103 13 38 8.0 14.5 0.00 0.00 0.00 74 1005.5
20260507191604 13 36 11.3 12.9 0.00 0.00 0.00 72 1005.4
20260507191104 13 72 8.0 16.1 0.00 0.00 0.00 71 1005.6
20260507190604 13 66 9.7 12.9 0.00 0.00 0.00 73 1005.7
20260507190104 13 61 8.0 12.9 0.00 0.00 0.00 73 1005.8
20260507185619 13 49 11.3 12.9 0.00 0.00 0.00 75 1005.7
20260507185104 12 54 9.7 11.3 0.00 0.00 0.00 74 1005.9
20260507184603 13 53 8.0 11.3 0.00 0.00 0.00 74 1005.9
20260507184104 12 45 8.0 9.7 0.00 0.00 0.00 74 1006.0
20260507183603 12 72 6.4 12.9 0.00 0.00 0.00 75 1006.1
20260507183104 12 57 12.9 16.1 0.00 0.00 0.00 76 1006.1
20260507182604 12 56 12.9 14.5 0.00 0.00 0.00 75 1006.1
20260507182103 12 60 12.9 16.1 0.00 0.00 0.00 75 1006.1
20260507181604 12 55 12.9 14.5 0.00 0.00 0.00 74 1006.1
20260507181109 12 62 11.3 14.5 0.00 0.00 0.00 74 1006.1
20260507180604 12 64 12.9 14.5 0.00 0.00 0.00 74 1006.1
20260507180104 12 55 12.9 14.5 0.00 0.00 0.00 74 1006.2
20260507175616 12 52 11.3 12.9 0.00 0.00 0.00 73 1006.4
20260507175104 12 55 11.3 12.9 0.00 0.00 0.00 72 1006.6
20260507174605 12 50 9.7 11.3 0.00 0.00 0.00 72 1006.6
20260507174104 12 58 9.7 11.3 0.00 0.00 0.00 72 1006.7
20260507173604 12 61 9.7 11.3 0.00 0.00 0.00 72 1006.7
20260507173104 12 65 8.0 11.3 0.00 0.00 0.00 73 1006.7
20260507172604 12 59 8.0 11.3 0.00 0.00 0.00 73 1006.6
20260507172104 12 45 9.7 11.3 0.00 0.00 0.00 74 1006.6
20260507171605 12 40 9.7 11.3 0.00 0.00 0.00 74 1006.7
20260507171104 12 34 8.0 11.3 0.00 0.00 0.00 74 1006.8
20260507170609 12 17 8.0 9.7 0.00 0.00 0.00 74 1007.0
20260507165602 12 18 6.4 8.0 0.00 0.00 0.00 73 1007.1
20260507165104 12 25 6.4 9.7 0.00 0.00 0.00 74 1007.2
20260507164602 12 20 8.0 9.7 0.00 0.00 0.00 76 1007.2
20260507164104 11 28 6.4 11.3 0.00 0.00 0.00 76 1007.1
20260507163604 11 11 8.0 12.9 0.00 0.00 0.00 76 1007.2
20260507163104 11 20 8.0 9.7 0.00 0.00 0.00 77 1007.1
20260507162604 11 4 8.0 11.3 0.00 0.00 0.00 77 1007.1
20260507162102 11 353 9.7 11.3 0.00 0.00 0.00 78 1007.1
20260507161603 11 335 9.7 12.9 0.00 0.00 0.00 79 1007.4
20260507161104 11 343 11.3 12.9 0.00 0.00 0.00 80 1007.4
20260507160609 11 337 11.3 14.5 0.00 0.00 0.00 82 1007.4
20260507160104 11 331 12.9 16.1 0.00 0.00 0.00 83 1007.3
20260507155604 11 328 14.5 17.7 0.00 0.00 0.00 84 1007.4
20260507155102 11 324 16.1 19.3 0.00 0.00 0.00 84 1007.5
20260507154604 11 319 16.1 17.7 0.00 0.00 0.00 84 1007.5
20260507154102 11 323 12.9 16.1 0.00 0.00 0.00 85 1007.5
20260507153604 11 321 12.9 16.1 0.00 0.00 0.00 85 1007.7
20260507153110 11 320 12.9 17.7 0.00 0.00 0.00 86 1007.7
20260507152604 11 316 12.9 16.1 0.00 0.00 0.00 85 1007.7
20260507152104 10 314 14.5 16.1 0.00 0.00 0.00 85 1007.8
20260507151603 10 316 12.9 17.7 0.00 0.00 0.00 85 1007.7
20260507151102 10 315 11.3 14.5 0.00 0.00 0.00 85 1007.5
20260507150603 10 313 9.7 14.5 0.00 0.00 0.00 84 1007.4
20260507150104 10 327 9.7 12.9 0.00 0.00 0.00 85 1007.5
20260507145602 10 316 8.0 11.3 0.00 0.00 0.00 85 1007.5
20260507145103 10 307 8.0 9.7 0.00 0.00 0.00 86 1007.6
20260507144604 10 314 6.4 11.3 0.00 0.00 0.00 87 1007.7
20260507144102 9 329 11.3 12.9 0.00 0.00 0.00 87 1007.7
20260507143602 10 319 9.7 14.5 0.00 0.00 0.00 88 1007.7
20260507143102 9 336 11.3 12.9 0.00 0.00 0.00 89 1007.8
20260507142602 9 341 9.7 12.9 0.00 0.00 0.00 90 1007.6
20260507142102 9 334 12.9 16.1 0.00 0.00 0.00 89 1007.8
20260507141602 9 337 14.5 17.7 0.00 0.00 0.00 90 1007.7
20260507141102 9 339 12.9 16.1 0.00 0.00 0.00 90 1007.7
20260507140602 9 351 12.9 17.7 0.00 0.00 0.00 90 1007.6
20260507135603 8 341 17.7 19.3 0.00 0.00 0.00 91 1007.7
20260507135102 8 339 16.1 19.3 0.00 0.00 0.00 91 1007.6
20260507134602 8 336 17.7 20.9 0.00 0.00 0.00 92 1007.7
20260507134102 8 336 14.5 17.7 0.00 0.00 0.00 92 1007.7
20260507133602 8 344 14.5 17.7 0.00 0.00 0.00 92 1007.5
20260507133104 8 351 12.9 17.7 0.00 0.00 0.00 92 1007.3
20260507132603 8 358 12.9 14.5 0.00 0.00 0.00 92 1007.3
20260507132102 8 1 11.3 14.5 0.00 0.00 0.00 93 1007.3
20260507131602 8 358 12.9 16.1 0.00 0.00 0.00 93 1007.3
20260507131102 8 343 12.9 20.9 0.00 0.00 0.00 93 1007.5
20260507130602 8 333 16.1 20.9 0.00 0.00 0.00 93 1007.9
20260507125602 8 338 19.3 20.9 0.00 0.00 0.00 93 1007.8
20260507125102 8 341 17.7 24.1 0.00 0.00 0.00 93 1007.8
20260507124602 8 349 19.3 25.7 0.00 0.00 0.00 93 1007.7
20260507124102 8 337 22.5 25.7 0.00 0.00 0.00 93 1007.8
20260507123602 8 344 20.9 25.7 0.00 0.00 0.00 93 1007.7
20260507123102 8 346 19.3 25.7 0.00 0.00 0.00 93 1007.6
20260507122602 8 355 17.7 20.9 0.00 0.00 0.00 93 1007.4
20260507122101 8 354 16.1 24.1 0.00 0.00 0.00 93 1007.5
20260507121602 8 345 20.9 25.7 0.00 0.00 0.00 93 1007.7
20260507121102 8 346 20.9 27.4 0.00 0.00 0.00 93 1007.5
20260507120602 8 346 24.1 30.6 0.00 0.00 0.00 93 1007.5
20260507115602 8 346 27.4 35.4 0.00 0.00 0.00 93 1007.4
20260507115102 8 347 29.0 40.2 0.00 0.00 0.00 93 1007.5
20260507114602 9 348 30.6 38.6 0.00 0.00 0.00 93 1007.7
20260507114102 9 342 30.6 37.0 0.00 0.00 0.00 93 1007.8
20260507113602 9 347 25.7 33.8 0.00 0.00 0.00 94 1007.8
20260507113102 9 350 20.9 24.1 0.00 0.00 0.00 94 1007.7
20260507112602 9 9 20.9 27.4 0.00 0.00 0.00 94 1007.1
20260507112102 9 14 22.5 27.4 0.00 0.00 0.00 93 1006.9
20260507111602 9 16 25.7 32.2 0.00 0.00 0.00 94 1006.8
20260507111101 9 15 22.5 30.6 0.00 0.00 0.00 94 1006.8
20260507110602 9 12 24.1 32.2 0.00 0.00 0.00 94 1006.9
20260507105601 9 2 24.1 30.6 0.00 0.00 0.00 94 1007.2
20260507105102 9 6 25.7 30.6 0.00 0.00 0.00 94 1007.1
20260507104602 9 5 24.1 30.6 0.00 0.00 0.00 94 1006.9
20260507104101 9 2 25.7 29.0 0.00 0.00 0.00 94 1006.8
20260507103602 9 5 24.1 29.0 0.00 0.00 0.00 94 1006.8
20260507103101 9 4 25.7 30.6 0.00 0.00 0.00 95 1006.9
20260507102601 9 12 24.1 30.6 0.00 0.00 0.00 95 1006.7
20260507102101 9 14 22.5 32.2 0.00 0.00 0.00 95 1006.5
20260507101601 9 12 24.1 30.6 0.00 0.00 0.00 95 1006.5
20260507101101 9 13 22.5 25.7 0.00 0.00 0.00 95 1006.6
20260507100602 9 12 22.5 27.4 0.00 0.00 0.00 95 1006.4
20260507095601 9 12 20.9 25.7 0.00 0.00 0.00 95 1006.3
20260507095101 9 18 19.3 29.0 0.00 0.00 0.00 95 1006.4
20260507094601 9 19 24.1 29.0 0.00 0.00 0.00 95 1005.6
20260507094102 10 7 19.3 30.6 0.00 0.00 0.00 95 1006.5
20260507093601 10 2 24.1 32.2 0.00 0.00 0.00 95 1006.5
20260507093101 10 6 27.4 35.4 0.00 0.00 0.00 94 1006.2
20260507092601 10 7 22.5 30.6 0.00 0.00 0.00 94 1005.9
20260507092101 11 351 24.1 30.6 0.00 0.00 0.00 94 1006.1
20260507091601 11 3 29.0 33.8 0.00 0.00 0.00 95 1005.9
20260507091101 11 333 9.7 17.7 0.00 0.00 0.00 95 1006.0
20260507090601 11 306 12.9 17.7 0.00 0.00 0.00 94 1006.2
20260507085601 11 289 12.9 19.3 0.00 0.00 0.00 95 1006.2
20260507085101 12 255 12.9 19.3 0.00 0.00 0.00 95 1006.7
20260507084601 12 259 11.3 17.7 0.00 0.00 0.00 95 1006.7
20260507084101 12 237 9.7 17.7 0.00 0.00 0.00 95 1006.3
20260507083601 12 245 9.7 16.1 0.00 0.00 0.00 95 1006.5
20260507083101 12 204 9.7 16.1 0.00 0.00 0.00 95 1005.8
20260507082601 12 195 8.0 14.5 0.00 0.00 0.00 95 1005.5
20260507082101 12 192 6.4 14.5 0.00 0.00 0.00 95 1005.2
20260507081601 12 192 4.8 9.7 0.00 0.00 0.00 95 1005.1
20260507081101 12 180 3.2 9.7 0.00 0.00 0.00 95 1005.2
20260507080601 12 199 4.8 8.0 0.00 0.00 0.00 95 1005.2
20260507075601 12 187 3.2 8.0 0.00 0.00 0.00 95 1005.3
20260507075101 12 204 4.8 8.0 0.00 0.00 0.00 95 1005.3
20260507074601 12 199 6.4 11.3 0.00 0.00 0.00 95 1005.3
20260507074101 12 218 4.8 9.7 0.00 0.00 0.00 95 1005.4
20260507073601 12 211 6.4 12.9 0.00 0.00 0.00 95 1005.6
20260507073101 12 216 8.0 16.1 0.00 0.00 0.00 95 1005.6
20260507072601 12 209 8.0 11.3 0.00 0.00 0.00 94 1005.6
20260507072101 12 213 4.8 11.3 0.00 0.00 0.00 94 1005.7
20260507071601 12 204 6.4 12.9 0.00 0.00 0.00 95 1005.8
20260507071101 12 210 6.4 11.3 0.00 0.00 0.00 95 1006.0
20260507070601 12 217 6.4 14.5 0.00 0.00 0.00 95 1006.2
20260507070101 12 236 6.4 9.7 0.00 0.00 0.00 95 1006.0
20260507065601 12 198 3.2 6.4 0.00 0.00 0.00 94 1005.8
20260507065101 12 203 4.8 8.0 0.00 0.00 0.00 94 1005.7
20260507064601 12 183 1.6 4.8 0.00 0.00 0.00 94 1005.7
20260507064101 12 221 4.8 8.0 0.00 0.00 0.00 94 1005.8
20260507063601 12 227 3.2 9.7 0.00 0.00 0.00 94 1005.9
20260507063101 12 221 4.8 12.9 0.00 0.00 0.00 94 1005.9
20260507062601 12 222 8.0 16.1 0.00 0.00 0.00 94 1006.0
20260507062101 12 213 8.0 16.1 0.00 0.00 0.00 94 1005.9
20260507061601 12 232 11.3 17.7 0.00 0.00 0.00 94 1006.1
20260507061102 12 219 11.3 17.7 0.00 0.00 0.00 94 1005.8
20260507060601 12 233 9.7 19.3 0.00 0.00 0.00 94 1006.1
20260507060101 12 244 9.7 22.5 0.00 0.00 0.00 94 1006.2
20260507055601 12 216 11.3 25.7 0.00 0.00 0.00 94 1005.8
20260507055101 12 215 11.3 22.5 0.00 0.00 0.00 94 1005.9
20260507054702 12 219 11.3 22.5 0.00 0.00 0.00 94 1006.1
20260507054101 12 211 14.5 25.7 0.00 0.00 0.00 94 1006.2
20260507053601 12 215 11.3 24.1 0.00 0.00 0.00 94 1006.2
20260507053100 12 216 14.5 29.0 0.00 0.00 0.00 94 1006.3
20260507052601 12 215 14.5 25.7 0.00 0.00 0.00 94 1006.5
20260507052100 12 229 14.5 33.8 0.00 0.00 0.00 94 1006.6
20260507051601 12 232 17.7 35.4 0.00 0.00 0.00 94 1006.7
20260507051101 13 228 17.7 30.6 0.00 0.00 0.00 94 1006.9
20260507050601 13 222 14.5 27.4 0.00 0.00 0.00 94 1006.8
20260507050100 13 223 12.9 30.6 0.00 0.00 0.00 94 1006.5
20260507045601 13 222 19.3 32.2 0.00 0.00 0.00 94 1006.6
20260507045100 13 225 16.1 32.2 0.00 0.00 0.00 94 1006.6
20260507044601 13 224 19.3 33.8 0.00 0.00 0.00 94 1006.7
20260507044101 13 231 17.7 32.2 0.00 0.00 0.00 94 1006.7
20260507043601 13 236 19.3 38.6 0.00 0.00 0.00 94 1006.8
20260507043101 13 233 22.5 35.4 0.00 0.00 0.00 94 1006.8
20260507042601 13 235 22.5 41.8 0.00 0.00 0.00 94 1006.8
20260507042101 13 237 20.9 35.4 0.00 0.00 0.00 93 1007.0
20260507041602 13 232 19.3 37.0 0.00 0.00 0.00 94 1007.1
20260507041102 13 237 24.1 43.5 0.00 0.00 0.00 94 1007.1
20260507040602 13 237 17.7 32.2 0.00 0.00 0.00 94 1007.3
20260507035602 13 226 14.5 30.6 0.00 0.00 0.00 94 1007.1
20260507035102 13 224 14.5 33.8 0.00 0.00 0.00 94 1007.0
20260507034602 13 220 16.1 37.0 0.00 0.00 0.00 93 1007.1
20260507034102 13 220 14.5 37.0 0.00 0.00 0.00 94 1007.1
20260507033602 13 218 19.3 38.6 0.00 0.00 0.00 94 1007.1
20260507033102 13 223 17.7 33.8 0.00 0.00 0.00 93 1007.2
20260507032602 13 224 19.3 37.0 0.00 0.00 0.00 93 1007.0
20260507032102 13 223 17.7 37.0 0.00 0.00 0.00 93 1007.0
20260507031602 13 222 14.5 30.6 0.00 0.00 0.00 93 1006.8
20260507031102 13 224 17.7 40.2 0.00 0.00 0.00 93 1006.9
20260507030602 13 219 17.7 33.8 0.00 0.00 0.00 93 1006.7
20260507025600 13 218 17.7 38.6 0.00 0.00 0.00 93 1006.8
20260507025102 13 222 16.1 33.8 0.00 0.00 0.00 93 1007.0
20260507024602 13 220 19.3 37.0 0.00 0.00 0.00 93 1007.1
20260507024102 13 220 22.5 38.6 0.00 0.00 0.00 93 1007.3
20260507023601 13 219 19.3 35.4 0.00 0.00 0.00 93 1007.5
20260507023102 13 218 22.5 35.4 0.00 0.00 0.00 93 1007.5
20260507022602 13 223 17.7 40.2 0.00 0.00 0.00 94 1007.6
20260507022102 13 228 17.7 37.0 0.00 0.00 0.00 93 1007.6
20260507021602 13 226 17.7 33.8 0.00 0.00 0.00 94 1007.8
20260507021102 13 227 22.5 38.6 0.00 0.00 0.00 94 1007.9
20260507020602 13 221 16.1 37.0 0.00 0.00 0.00 94 1007.8
20260507020108 13 219 20.9 38.6 0.00 0.00 0.00 94 1007.7
20260507015602 13 227 19.3 37.0 0.00 0.00 0.00 94 1007.9
20260507015100 13 230 19.3 37.0 0.00 0.00 0.00 94 1007.9
20260507014602 13 219 22.5 41.8 0.00 0.00 0.00 94 1008.0
20260507014102 13 222 16.1 56.3 0.00 0.00 0.00 94 1008.1
20260507013602 13 220 19.3 45.1 0.00 0.00 0.00 94 1008.0
20260507013102 13 228 19.3 51.5 0.00 0.00 0.00 94 1008.1
20260507012602 13 227 24.1 46.7 0.00 0.00 0.00 94 1008.0
20260507012102 13 215 19.3 51.5 0.00 0.00 0.00 94 1007.7
20260507011602 13 217 22.5 45.1 0.00 0.00 0.00 94 1007.9
20260507011100 13 220 24.1 46.7 0.00 0.00 0.00 94 1008.0
20260507010602 13 224 16.1 46.7 0.00 0.00 0.00 94 1008.0
20260507010101 13 214 14.5 37.0 0.00 0.00 0.00 94 1007.9
20260507005602 13 222 25.7 48.3 0.00 0.00 0.00 94 1008.0
20260507005100 13 208 16.1 41.8 0.00 0.00 0.00 94 1008.0
20260507004602 13 214 16.1 46.7 0.00 0.00 0.00 93 1008.0
20260507004101 13 214 20.9 48.3 0.00 0.00 0.00 94 1008.0
20260507003601 13 215 20.9 43.5 0.00 0.00 0.00 93 1008.0
20260507003101 13 216 20.9 41.8 0.00 0.00 0.00 93 1008.1
20260507002602 13 208 27.4 48.3 0.00 0.00 0.00 93 1007.9
20260507002101 13 204 20.9 38.6 0.00 0.00 0.00 93 1007.9
20260507001602 13 211 17.7 41.8 0.00 0.00 0.00 93 1008.0
20260507001100 13 211 12.9 48.3 0.00 0.00 0.00 93 1007.9
20260507000602 13 222 19.3 40.2 0.00 0.00 0.00 93 1008.1
20260507000101 13 209 19.3 51.5 0.00 0.00 0.00 92 1007.8
20260506235601 13 205 16.1 53.1 0.00 0.00 0.00 92 1007.9
20260506235101 13 202 19.3 51.5 0.00 0.00 0.00 92 1007.6
20260506234601 13 207 19.3 46.7 0.00 0.00 0.00 92 1008.0
20260506234101 13 213 20.9 48.3 0.00 0.00 0.00 92 1008.1
20260506233602 13 214 20.9 45.1 0.00 0.00 0.00 91 1008.3
20260506233101 13 211 16.1 37.0 0.00 0.00 0.00 91 1008.4
20260506232601 13 207 17.7 41.8 0.00 0.00 0.00 91 1008.4
20260506232100 13 210 20.9 46.7 0.00 0.00 0.00 91 1008.4
20260506231600 13 207 19.3 41.8 0.00 0.00 0.00 90 1008.5
20260506231100 13 209 17.7 43.5 0.00 0.00 0.00 90 1008.5
20260506230600 13 211 16.1 40.2 0.00 0.00 0.00 90 1008.5
20260506230100 13 211 12.9 30.6 0.00 0.00 0.00 89 1008.5
20260506225600 13 213 22.5 41.8 0.00 0.00 0.00 89 1008.9
20260506225059 13 209 20.9 48.3 0.00 0.00 0.00 88 1008.7
20260506224600 13 210 19.3 51.5 0.00 0.00 0.00 87 1008.9
20260506224100 14 212 20.9 43.5 0.00 0.00 0.00 85 1008.9
20260506223600 14 211 19.3 38.6 0.00 0.00 0.00 85 1008.8
20260506223100 14 216 16.1 37.0 0.00 0.00 0.00 84 1008.7
20260506222600 15 211 14.5 41.8 0.00 0.00 0.00 83 1008.6
20260506222100 15 203 19.3 40.2 0.00 0.00 0.00 83 1008.6
20260506221600 15 210 22.5 49.9 0.00 0.00 0.00 82 1008.6
20260506221100 15 204 24.1 48.3 0.00 0.00 0.00 82 1008.5
20260506220600 15 212 20.9 51.5 0.00 0.00 0.00 82 1008.7
20260506220100 15 202 20.9 51.5 0.00 0.00 0.00 82 1008.7
20260506215600 15 199 16.1 48.3 0.00 0.00 0.00 82 1008.8
20260506215100 15 214 25.7 45.1 0.00 0.00 0.00 83 1008.7
20260506214600 14 206 17.7 54.7 0.00 0.00 0.00 83 1008.8
20260506214100 15 202 20.9 56.3 0.00 0.00 0.00 82 1009.3
20260506213600 15 214 22.5 48.3 0.00 0.00 0.00 82 1009.0
20260506213100 15 215 17.7 48.3 0.00 0.00 0.00 81 1009.1
20260506212601 15 212 20.9 48.3 0.00 0.00 0.00 80 1009.1
20260506212059 15 207 16.1 45.1 0.00 0.00 0.00 80 1009.2
20260506211559 15 216 25.7 54.7 0.00 0.00 0.00 81 1008.9
20260506211100 15 213 30.6 51.5 0.00 0.00 0.00 81 1008.6
20260506210559 15 211 22.5 53.1 0.00 0.00 0.00 81 1008.8
20260506210059 15 214 19.3 45.1 0.00 0.00 0.00 81 1008.9
20260506205559 15 210 17.7 59.5 0.00 0.00 0.00 81 1009.0
20260506205100 15 213 27.4 48.3 0.00 0.00 0.00 81 1009.2
20260506204600 15 207 25.7 56.3 0.00 0.00 0.00 81 1009.2
20260506204059 15 214 29.0 57.9 0.00 0.00 0.00 80 1009.1
20260506203600 15 210 24.1 49.9 0.00 0.00 0.00 80 1009.3
20260506203100 15 201 22.5 51.5 0.00 0.00 0.00 79 1009.3
20260506202600 15 209 20.9 48.3 0.00 0.00 0.00 79 1009.2
20260506202059 15 209 20.9 41.8 0.00 0.00 0.00 79 1009.6
20260506201600 15 212 25.7 49.9 0.00 0.00 0.00 80 1009.6
20260506201059 15 216 19.3 46.7 0.00 0.00 0.00 80 1009.5
20260506200559 15 211 22.5 51.5 0.00 0.00 0.00 79 1009.7
20260506200059 15 205 22.5 49.9 0.00 0.00 0.00 79 1009.6
20260506195559 15 212 24.1 53.1 0.00 0.00 0.00 79 1009.9
20260506195059 15 208 17.7 57.9 0.00 0.00 0.00 79 1009.8
20260506194601 15 210 20.9 54.7 0.00 0.00 0.00 79 1009.7
20260506194100 15 213 22.5 53.1 0.00 0.00 0.00 79 1009.8
20260506193600 15 214 24.1 45.1 0.00 0.00 0.00 79 1010.0
20260506193059 15 216 24.1 56.3 0.00 0.00 0.00 79 1009.8